Newport, Oregon, United States (97365)
Lat: 44.64N, Lon: 124.05W
Wx Zone: ORZ002
Local Info
Past Weather Observations for Today

NOTE: This archive is for the closest National Weather Service station to Newport. Information may differ from the station used for current weather conditions.

Click here for Long-term Archive

Time Weather Temperature Dewpoint Humidity Pressure Winds Precip Visibility
20:15
Overcast
Fog And Mist
54°F / 12°C 52°F / 11°C 94% 30.12 in
(1020 mb)
N 13.8 mph
(N 22 kph)
- 1 1/4SM
19:55
Overcast
Fog
54°F / 12°C 52°F / 11°C 94% 30.12 in
(1020 mb)
NNW 13.8 mph
(NNW 22 kph)
- 1/2SM
19:35
Overcast
Fog
54°F / 12°C 52°F / 11°C 94% 30.12 in
(1020 mb)
NNW 13.8 mph
(NNW 22 kph)
- 1/2SM
19:15
Overcast
Fog
54°F / 12°C 54°F / 12°C 100% 30.12 in
(1020 mb)
N 15 mph
(N 24 kph)
- 1/2SM
18:55
Overcast
Fog And Mist
54°F / 12°C 54°F / 12°C 100% 30.12 in
(1020 mb)
N 13.8 mph
(N 22 kph)
- 1SM
18:35
Overcast
Fog
55°F / 13°C 54°F / 12°C 94% 30.12 in
(1020 mb)
N 11.5 mph
(N 19 kph)
- 1/4SM
18:15
Overcast
Fog
54°F / 12°C 54°F / 12°C 100% 30.12 in
(1020 mb)
NNW 13.8 mph
(NNW 22 kph)
- M1/4SM
17:55
Overcast
Fog
55°F / 13°C 54°F / 12°C 94% 30.12 in
(1020 mb)
NNW 15 mph
(NNW 24 kph)
- 1/4SM
17:35
Overcast
Fog
55°F / 13°C 55°F / 13°C 100% 30.12 in
(1020 mb)
NNW 18.4 mph
(NNW 30 kph)
- 1/2SM
17:15
Overcast
Fog
55°F / 13°C 55°F / 13°C 100% 30.12 in
(1020 mb)
NNW 15 mph
(NNW 24 kph)
- 1/4SM
16:55
Overcast
Fog
55°F / 13°C 55°F / 13°C 100% 30.12 in
(1020 mb)
N 15 mph
(N 24 kph)
- 1/2SM
16:35
Overcast
Fog
55°F / 13°C 54°F / 12°C 94% 30.12 in
(1020 mb)
NNW 16.1 mph
(NNW 26 kph)
- 1/2SM
16:15
Overcast
Fog
57°F / 14°C 54°F / 12°C 88% 30.12 in
(1020 mb)
NNW 17.3 mph
(NNW 28 kph)
- 1/4SM
15:55
Overcast
Fog And Mist
59°F / 15°C 55°F / 13°C 88% 30.12 in
(1020 mb)
NNW 17.3 mph
(NNW 28 kph)
- 3/4SM
15:35
Overcast
Fog And Mist
59°F / 15°C 55°F / 13°C 88% 30.12 in
(1020 mb)
NNW 18.4 mph
(NNW 30 kph)
- 1 1/2SM
15:15
Overcast
Fog And Mist
59°F / 15°C 55°F / 13°C 88% 30.12 in
(1020 mb)
NNW 19.6 mph
(NNW 32 kph)
- 1 1/4SM
14:55
Overcast
Fog And Mist
59°F / 15°C 55°F / 13°C 88% 30.12 in
(1020 mb)
NNW 19.6 mph
(NNW 32 kph)
- 1 1/4SM
14:35
Overcast
Fog And Mist
59°F / 15°C 55°F / 13°C 88% 30.15 in
(1021 mb)
NNW 18.4 mph
(NNW 30 kph)
- 1 1/2SM
14:15
Overcast
Fog And Mist
61°F / 16°C 55°F / 13°C 83% 30.12 in
(1020 mb)
NNW 20.7 mph
(NNW 33 kph)
- 1 1/2SM
13:55
Overcast
61°F / 16°C 55°F / 13°C 83% 30.12 in
(1020 mb)
NNW 20.7 mph
(NNW 33 kph)
-
13:35
Overcast
59°F / 15°C 55°F / 13°C 88% 30.12 in
(1020 mb)
NNW 24.2 mph
(NNW 39 kph)
-
13:15
Overcast
59°F / 15°C 55°F / 13°C 88% 30.12 in
(1020 mb)
NNW 20.7 mph
(NNW 33 kph)
-
12:55
Overcast
Fog And Mist
59°F / 15°C 55°F / 13°C 88% 30.12 in
(1020 mb)
NNW 19.6 mph
(NNW 32 kph)
- 3/4SM
12:35
Overcast
Fog And Mist
59°F / 15°C 55°F / 13°C 88% 30.12 in
(1020 mb)
NNW 20.7 mph
(NNW 33 kph)
- 3/4SM
12:15
Mostly Cloudy
Fog And Mist
59°F / 15°C 55°F / 13°C 88% 30.15 in
(1021 mb)
NNW 18.4 mph
(NNW 30 kph)
- 1 1/2SM
11:55
Clear
Fog And Mist
59°F / 15°C 55°F / 13°C 88% 30.12 in
(1020 mb)
NNW 18.4 mph
(NNW 30 kph)
- 5SM
11:35
Clear
59°F / 15°C 54°F / 12°C 82% 30.12 in
(1020 mb)
NNW 21.9 mph
(NNW 35 kph)
- 10SM
11:15
Clear
59°F / 15°C 54°F / 12°C 82% 30.12 in
(1020 mb)
NNW 17.3 mph
(NNW 28 kph)
- 10SM
10:55
Clear
61°F / 16°C 54°F / 12°C 77% 30.15 in
(1021 mb)
NNW 12.7 mph
(NNW 20 kph)
- 10SM
10:35
Clear
61°F / 16°C 55°F / 13°C 83% 30.15 in
(1021 mb)
NNW 12.7 mph
(NNW 20 kph)
- 10SM
10:15
Clear
59°F / 15°C 55°F / 13°C 88% 30.15 in
(1021 mb)
NNW 10.4 mph
(NNW 17 kph)
- 10SM
09:55
Clear
55°F / 13°C 54°F / 12°C 94% 30.12 in
(1020 mb)
NNW 11.5 mph
(NNW 19 kph)
- 10SM
09:35
Partly Cloudy
55°F / 13°C 54°F / 12°C 94% 30.15 in
(1021 mb)
NNW 9.2 mph
(NNW 15 kph)
- 10SM
09:15
Partly Cloudy
55°F / 13°C 54°F / 12°C 94% 30.15 in
(1021 mb)
NNW 9.2 mph
(NNW 15 kph)
- 7SM
08:55
Mostly Cloudy
55°F / 13°C 55°F / 13°C 100% 30.12 in
(1020 mb)
NW 9.2 mph
(NW 15 kph)
- 10SM
08:35
Overcast
Fog And Mist
54°F / 12°C 54°F / 12°C 100% 30.15 in
(1021 mb)
NNW 6.9 mph
(NNW 11 kph)
- 5SM
08:15
Overcast
Fog And Mist
55°F / 13°C 55°F / 13°C 100% 30.15 in
(1021 mb)
NW 4.6 mph
(NW 7 kph)
- 1SM
07:55
Overcast
Fog
55°F / 13°C 54°F / 12°C 94% 30.15 in
(1021 mb)
NW 4.6 mph
(NW 7 kph)
- 1/2SM
07:35
Overcast
Fog
54°F / 12°C 54°F / 12°C 100% 30.15 in
(1021 mb)
Calm - 1/2SM
07:15
Overcast
Fog
54°F / 12°C 54°F / 12°C 100% 30.15 in
(1021 mb)
Calm - 1/4SM
06:55
Overcast
Fog
54°F / 12°C 54°F / 12°C 100% 30.12 in
(1020 mb)
NNW 3.5 mph
(NNW 6 kph)
- 1/4SM
06:35
Overcast
Fog
54°F / 12°C 54°F / 12°C 100% 30.12 in
(1020 mb)
Calm - 1/4SM
06:15
Overcast
Fog
52°F / 11°C 52°F / 11°C 100% 30.12 in
(1020 mb)
Calm - M1/4SM
05:55
Partly Cloudy
50°F / 10°C 50°F / 10°C 100% 30.12 in
(1020 mb)
Calm - 7SM
05:35
Partly Cloudy
48°F / 9°C 48°F / 9°C 100% 30.12 in
(1020 mb)
Calm - 7SM
05:15
Overcast
Fog
48°F / 9°C 48°F / 9°C 100% 30.12 in
(1020 mb)
Calm - 1/4SM
04:55
Overcast
Fog
50°F / 10°C 48°F / 9°C 94% 30.12 in
(1020 mb)
Calm - M1/4SM
04:35
Overcast
Fog
50°F / 10°C 48°F / 9°C 94% 30.12 in
(1020 mb)
Calm - 1/2SM
04:15
Overcast
Fog
50°F / 10°C 48°F / 9°C 94% 30.12 in
(1020 mb)
Calm - 1/2SM
03:55
Overcast
Fog And Mist
50°F / 10°C 48°F / 9°C 94% 30.12 in
(1020 mb)
Calm - 3SM
03:35
Partly Cloudy
50°F / 10°C 48°F / 9°C 94% 30.12 in
(1020 mb)
Calm - 7SM
03:15
Clear
Fog And Mist
50°F / 10°C 48°F / 9°C 94% 30.12 in
(1020 mb)
Calm - 2SM
02:55
Clear
Fog And Mist
50°F / 10°C 48°F / 9°C 94% 30.12 in
(1020 mb)
Calm - 3SM
02:35
Clear
Fog And Mist
50°F / 10°C 50°F / 10°C 100% 30.12 in
(1020 mb)
Calm - 2SM
02:15
Clear
Fog And Mist
50°F / 10°C 50°F / 10°C 100% 30.12 in
(1020 mb)
Calm - 5SM
01:55
Clear
Fog And Mist
50°F / 10°C 50°F / 10°C 100% 30.12 in
(1020 mb)
Calm - 5SM
01:35
Clear
50°F / 10°C 50°F / 10°C 100% 30.12 in
(1020 mb)
Calm - 7SM
01:15
Clear
Fog And Mist
52°F / 11°C 50°F / 10°C 94% 30.12 in
(1020 mb)
Calm - 4SM
00:55
Clear
Fog And Mist
52°F / 11°C 50°F / 10°C 94% 30.12 in
(1020 mb)
Calm - 4SM
00:35
Clear
52°F / 11°C 50°F / 10°C 94% 30.12 in
(1020 mb)
Calm - 7SM
00:15
Clear
52°F / 11°C 50°F / 10°C 94% 30.12 in
(1020 mb)
Calm - 7SM
Time Weather Temperature Dewpoint Humidity Pressure Winds Precip Visibility


Weather for websites

WeatherForYou.com, LLC is not responsible for any damages or problems caused by this service. Current weather conditions are obtained from the closest station including government and personal stations which may have varying degrees of accuracy. Weather forecasts are derived from the NOAA NDFD. Like all things, this site belongs to Jesus Christ... He just trusts me to maintain it. If you have any questions or comments email webmaster@weatherforyou.com

Copyright © 2014, WeatherForYou.com LLC. All rights reserved.